contact:dominique.lefevre@mio.osupytheas.fr, maurice.libes@osupytheas.fr, didier.mallarino@osupytheas.fr
Project:EMSO http://www.emso-fr.org/EMSO-France
Depth: 2436.0 m
Title:EMSO Ligure Ouest : Data MII capteur OXYGEN
DateTime,Latitude,Longitude,Optode-Type,Optode_Serial,Oxygen,Saturation_Oxygen,Temperature
DateTime,Latitude,Longitude,Optode-Type,Optode_Serial,µmol.l-1,%,degC
2019-07-01T03:05:17,42.805,6.029,4330,1995,194.222,59.394,13.287
2019-07-01T03:08:17,42.805,6.029,4330,1995,194.180,59.381,13.287
2019-07-01T03:11:17,42.805,6.029,4330,1995,194.156,59.375,13.288
2019-07-01T03:14:17,42.805,6.029,4330,1995,194.207,59.391,13.288
2019-07-01T03:17:17,42.805,6.029,4330,1995,194.167,59.379,13.288
2019-07-01T03:20:17,42.805,6.029,4330,1995,194.246,59.403,13.288
2019-07-01T03:23:17,42.805,6.029,4330,1995,194.249,59.404,13.288
2019-07-01T03:26:17,42.805,6.029,4330,1995,194.198,59.389,13.288
2019-07-01T03:29:17,42.805,6.029,4330,1995,194.170,59.380,13.288
2019-07-01T03:32:17,42.805,6.029,4330,1995,194.208,59.392,13.288
2019-07-01T03:35:17,42.805,6.029,4330,1995,194.156,59.376,13.288
2019-07-01T03:38:17,42.805,6.029,4330,1995,194.126,59.367,13.288
2019-07-01T03:41:17,42.805,6.029,4330,1995,194.190,59.386,13.288
2019-07-01T03:44:17,42.805,6.029,4330,1995,194.195,59.388,13.288
2019-07-01T03:47:17,42.805,6.029,4330,1995,194.199,59.389,13.288
2019-07-01T03:50:17,42.805,6.029,4330,1995,194.171,59.381,13.289
2019-07-01T03:53:17,42.805,6.029,4330,1995,194.166,59.379,13.289
2019-07-01T03:56:17,42.805,6.029,4330,1995,194.225,59.398,13.289
2019-07-01T03:59:17,42.805,6.029,4330,1995,194.179,59.384,13.289
2019-07-01T04:02:17,42.805,6.029,4330,1995,194.185,59.386,13.289
2019-07-01T04:05:17,42.805,6.029,4330,1995,194.147,59.374,13.289
2019-07-01T04:08:17,42.805,6.029,4330,1995,194.088,59.356,13.289
2019-07-01T04:11:17,42.805,6.029,4330,1995,194.130,59.369,13.289
2019-07-01T04:14:17,42.805,6.029,4330,1995,194.248,59.405,13.289
2019-07-01T04:17:17,42.805,6.029,4330,1995,194.256,59.407,13.289
2019-07-01T04:20:17,42.805,6.029,4330,1995,194.240,59.402,13.289
2019-07-01T04:23:17,42.805,6.029,4330,1995,194.216,59.395,13.289
2019-07-01T04:26:17,42.805,6.029,4330,1995,194.273,59.412,13.289
2019-07-01T04:29:17,42.805,6.029,4330,1995,194.234,59.400,13.289
2019-07-01T04:32:17,42.805,6.029,4330,1995,194.187,59.386,13.289
2019-07-01T04:35:17,42.805,6.029,4330,1995,194.235,59.401,13.289
2019-07-01T04:38:17,42.805,6.029,4330,1995,194.222,59.397,13.289
2019-07-01T04:41:17,42.805,6.029,4330,1995,194.145,59.373,13.289
2019-07-01T04:44:17,42.805,6.029,4330,1995,194.098,59.359,13.289
2019-07-01T04:47:17,42.805,6.029,4330,1995,194.176,59.382,13.288
2019-07-01T04:50:17,42.805,6.029,4330,1995,194.139,59.371,13.288
2019-07-01T04:53:17,42.805,6.029,4330,1995,194.142,59.372,13.288
2019-07-01T04:56:17,42.805,6.029,4330,1995,194.158,59.377,13.288
2019-07-01T04:59:17,42.805,6.029,4330,1995,194.158,59.376,13.288
2019-07-01T05:02:17,42.805,6.029,4330,1995,194.201,59.389,13.288
2019-07-01T05:05:17,42.805,6.029,4330,1995,194.207,59.391,13.288
2019-07-01T05:08:17,42.805,6.029,4330,1995,194.201,59.389,13.288
2019-07-01T05:11:17,42.805,6.029,4330,1995,194.284,59.414,13.288
2019-07-01T05:14:17,42.805,6.029,4330,1995,194.297,59.418,13.288
2019-07-01T05:17:17,42.805,6.029,4330,1995,194.277,59.412,13.288
2019-07-01T05:20:17,42.805,6.029,4330,1995,194.254,59.405,13.288
2019-07-01T05:23:17,42.805,6.029,4330,1995,194.290,59.416,13.288
2019-07-01T05:26:17,42.805,6.029,4330,1995,194.260,59.407,13.288
2019-07-01T05:29:17,42.805,6.029,4330,1995,194.250,59.404,13.288
2019-07-01T05:32:17,42.805,6.029,4330,1995,194.224,59.396,13.288
2019-07-01T05:35:17,42.805,6.029,4330,1995,194.229,59.398,13.288
2019-07-01T05:41:17,42.805,6.029,4330,1995,194.270,59.411,13.288
2019-07-01T05:44:17,42.805,6.029,4330,1995,194.259,59.407,13.288
2019-07-01T05:47:17,42.805,6.029,4330,1995,194.246,59.404,13.288
2019-07-01T05:50:17,42.805,6.029,4330,1995,194.251,59.405,13.288
2019-07-01T05:53:17,42.805,6.029,4330,1995,194.213,59.394,13.288
2019-07-01T05:56:17,42.805,6.029,4330,1995,194.220,59.396,13.288
2019-07-01T05:59:17,42.805,6.029,4330,1995,194.210,59.392,13.288
2019-07-01T06:02:17,42.805,6.029,4330,1995,194.178,59.382,13.288
2019-07-01T06:05:17,42.805,6.029,4330,1995,194.159,59.376,13.288
2019-07-01T06:08:17,42.805,6.029,4330,1995,194.219,59.394,13.288
2019-07-01T06:11:17,42.805,6.029,4330,1995,194.242,59.402,13.288
2019-07-01T06:14:17,42.805,6.029,4330,1995,194.145,59.372,13.288
2019-07-01T06:17:17,42.805,6.029,4330,1995,194.205,59.390,13.288
2019-07-01T06:20:17,42.805,6.029,4330,1995,194.177,59.381,13.288
2019-07-01T06:23:17,42.805,6.029,4330,1995,194.190,59.385,13.287
2019-07-01T06:26:17,42.805,6.029,4330,1995,194.228,59.397,13.288
2019-07-01T06:29:17,42.805,6.029,4330,1995,194.217,59.394,13.288
2019-07-01T06:32:17,42.805,6.029,4330,1995,194.214,59.393,13.288
2019-07-01T06:35:17,42.805,6.029,4330,1995,194.192,59.386,13.288
2019-07-01T06:38:17,42.805,6.029,4330,1995,194.189,59.385,13.288
2019-07-01T06:41:17,42.805,6.029,4330,1995,194.175,59.381,13.288
2019-07-01T06:44:17,42.805,6.029,4330,1995,194.211,59.392,13.288
2019-07-01T06:47:17,42.805,6.029,4330,1995,194.255,59.406,13.288
2019-07-01T06:50:17,42.805,6.029,4330,1995,194.209,59.392,13.288
2019-07-01T06:53:17,42.805,6.029,4330,1995,194.224,59.396,13.288
2019-07-01T06:56:17,42.805,6.029,4330,1995,194.169,59.380,13.288
2019-07-01T06:59:17,42.805,6.029,4330,1995,194.256,59.406,13.288
2019-07-01T07:02:17,42.805,6.029,4330,1995,194.206,59.391,13.288
2019-07-01T07:05:17,42.805,6.029,4330,1995,194.198,59.389,13.288
2019-07-01T07:08:17,42.805,6.029,4330,1995,194.196,59.388,13.288
2019-07-01T07:11:17,42.805,6.029,4330,1995,194.215,59.394,13.288
2019-07-01T07:14:17,42.805,6.029,4330,1995,194.250,59.405,13.288
2019-07-01T07:17:17,42.805,6.029,4330,1995,194.268,59.410,13.288
2019-07-01T07:20:17,42.805,6.029,4330,1995,194.259,59.407,13.288
2019-07-01T07:23:17,42.805,6.029,4330,1995,194.292,59.418,13.289
2019-07-01T07:26:17,42.805,6.029,4330,1995,194.299,59.420,13.289
2019-07-01T07:29:17,42.805,6.029,4330,1995,194.259,59.408,13.288
2019-07-01T07:32:17,42.805,6.029,4330,1995,194.295,59.419,13.289
2019-07-01T07:35:17,42.805,6.029,4330,1995,194.244,59.404,13.289
2019-07-01T07:38:17,42.805,6.029,4330,1995,194.242,59.403,13.289
2019-07-01T07:41:17,42.805,6.029,4330,1995,194.188,59.386,13.289
2019-07-01T07:44:17,42.805,6.029,4330,1995,194.219,59.396,13.289
2019-07-01T07:47:17,42.805,6.029,4330,1995,194.253,59.406,13.289
2019-07-01T07:50:17,42.805,6.029,4330,1995,194.251,59.405,13.288
2019-07-01T07:53:17,42.805,6.029,4330,1995,194.263,59.409,13.288
2019-07-01T07:56:17,42.805,6.029,4330,1995,194.279,59.414,13.288
2019-07-01T07:59:17,42.805,6.029,4330,1995,194.244,59.403,13.288
2019-07-01T08:02:17,42.805,6.029,4330,1995,194.187,59.385,13.288
2019-07-01T08:05:17,42.805,6.029,4330,1995,194.186,59.385,13.288
2019-07-01T08:08:17,42.805,6.029,4330,1995,194.218,59.395,13.288
2019-07-01T08:11:17,42.805,6.029,4330,1995,194.227,59.397,13.288
2019-07-01T08:17:17,42.805,6.029,4330,1995,194.216,59.392,13.287
2019-07-01T08:20:17,42.805,6.029,4330,1995,194.251,59.405,13.288
2019-07-01T08:23:17,42.805,6.029,4330,1995,194.229,59.398,13.288
2019-07-01T08:26:17,42.805,6.029,4330,1995,194.219,59.395,13.288
2019-07-01T08:29:17,42.805,6.029,4330,1995,194.217,59.395,13.289
2019-07-01T08:32:17,42.805,6.029,4330,1995,194.258,59.408,13.289
2019-07-01T08:35:17,42.805,6.029,4330,1995,194.175,59.383,13.289
2019-07-01T08:38:17,42.805,6.029,4330,1995,194.208,59.392,13.289
2019-07-01T08:41:17,42.805,6.029,4330,1995,194.257,59.407,13.289
2019-07-01T08:44:17,42.805,6.029,4330,1995,194.198,59.390,13.289
2019-07-01T08:47:17,42.805,6.029,4330,1995,194.235,59.401,13.289
2019-07-01T08:50:17,42.805,6.029,4330,1995,194.203,59.391,13.289
2019-07-01T08:53:17,42.805,6.029,4330,1995,194.294,59.419,13.289
2019-07-01T08:56:17,42.805,6.029,4330,1995,194.234,59.400,13.289
2019-07-01T08:59:17,42.805,6.029,4330,1995,194.283,59.415,13.289
2019-07-01T09:02:17,42.805,6.029,4330,1995,194.321,59.427,13.288
2019-07-01T09:05:17,42.805,6.029,4330,1995,194.289,59.417,13.289
2019-07-01T09:08:17,42.805,6.029,4330,1995,194.271,59.411,13.288
2019-07-01T09:11:17,42.805,6.029,4330,1995,194.256,59.406,13.288
2019-07-01T09:14:17,42.805,6.029,4330,1995,194.269,59.410,13.288
2019-07-01T09:17:17,42.805,6.029,4330,1995,194.247,59.404,13.288
2019-07-01T09:20:16,42.805,6.029,4330,1995,194.313,59.424,13.288
2019-07-01T09:23:16,42.805,6.029,4330,1995,194.270,59.410,13.288
2019-07-01T09:26:16,42.805,6.029,4330,1995,194.189,59.386,13.288
2019-07-01T09:29:16,42.805,6.029,4330,1995,194.227,59.397,13.288
2019-07-01T09:32:16,42.805,6.029,4330,1995,194.283,59.414,13.288
2019-07-01T09:35:16,42.805,6.029,4330,1995,194.323,59.426,13.287
2019-07-01T09:38:16,42.805,6.029,4330,1995,194.278,59.412,13.288
2019-07-01T09:41:16,42.805,6.029,4330,1995,194.254,59.405,13.287
2019-07-01T09:44:16,42.805,6.029,4330,1995,194.287,59.415,13.288
2019-07-01T09:47:16,42.805,6.029,4330,1995,194.184,59.384,13.288
2019-07-01T09:50:16,42.805,6.029,4330,1995,194.201,59.389,13.288
2019-07-01T09:53:17,42.805,6.029,4330,1995,194.211,59.392,13.288
2019-07-01T09:56:16,42.805,6.029,4330,1995,194.204,59.390,13.288
2019-07-01T09:59:16,42.805,6.029,4330,1995,194.187,59.385,13.288
2019-07-01T10:02:16,42.805,6.029,4330,1995,194.160,59.377,13.288
2019-07-01T10:05:16,42.805,6.029,4330,1995,194.231,59.399,13.288
2019-07-01T10:08:16,42.805,6.029,4330,1995,194.217,59.394,13.288
2019-07-01T10:11:16,42.805,6.029,4330,1995,194.266,59.409,13.288
2019-07-01T10:14:16,42.805,6.029,4330,1995,194.217,59.395,13.288
2019-07-01T10:17:16,42.805,6.029,4330,1995,194.160,59.377,13.288
2019-07-01T10:20:16,42.805,6.029,4330,1995,194.170,59.380,13.288
2019-07-01T10:23:16,42.805,6.029,4330,1995,194.207,59.392,13.288
2019-07-01T10:26:16,42.805,6.029,4330,1995,194.159,59.377,13.288
2019-07-01T10:29:16,42.805,6.029,4330,1995,194.164,59.378,13.288
2019-07-01T10:32:16,42.805,6.029,4330,1995,194.142,59.372,13.288
2019-07-01T10:35:16,42.805,6.029,4330,1995,194.163,59.378,13.288
2019-07-01T10:38:16,42.805,6.029,4330,1995,194.217,59.395,13.288
2019-07-01T10:41:16,42.805,6.029,4330,1995,194.204,59.391,13.288
2019-07-01T10:44:16,42.805,6.029,4330,1995,194.238,59.402,13.289
2019-07-01T10:50:16,42.805,6.029,4330,1995,194.208,59.391,13.288
2019-07-01T10:53:16,42.805,6.029,4330,1995,194.173,59.379,13.287
2019-07-01T10:56:16,42.805,6.029,4330,1995,194.211,59.392,13.287
2019-07-01T10:59:16,42.805,6.029,4330,1995,194.215,59.393,13.288
2019-07-01T11:02:16,42.805,6.029,4330,1995,194.220,59.395,13.288
2019-07-01T11:05:16,42.805,6.029,4330,1995,194.254,59.405,13.288
2019-07-01T11:08:16,42.805,6.029,4330,1995,194.245,59.403,13.288
2019-07-01T11:11:16,42.805,6.029,4330,1995,194.238,59.400,13.288
2019-07-01T11:14:16,42.805,6.029,4330,1995,194.301,59.420,13.288
2019-07-01T11:17:16,42.805,6.029,4330,1995,194.231,59.398,13.288
2019-07-01T11:20:16,42.805,6.029,4330,1995,194.242,59.402,13.288
2019-07-01T11:23:16,42.805,6.029,4330,1995,194.222,59.396,13.288
2019-07-01T11:26:16,42.805,6.029,4330,1995,194.205,59.390,13.288
2019-07-01T11:29:16,42.805,6.029,4330,1995,194.234,59.399,13.288
2019-07-01T11:32:16,42.805,6.029,4330,1995,194.258,59.407,13.288
2019-07-01T11:35:16,42.805,6.029,4330,1995,194.224,59.397,13.288
2019-07-01T11:38:16,42.805,6.029,4330,1995,194.282,59.414,13.288
2019-07-01T11:41:16,42.805,6.029,4330,1995,194.289,59.417,13.288
2019-07-01T11:44:16,42.805,6.029,4330,1995,194.280,59.414,13.288
2019-07-01T11:47:16,42.805,6.029,4330,1995,194.247,59.404,13.289
2019-07-01T11:50:16,42.805,6.029,4330,1995,194.216,59.395,13.289
2019-07-01T11:53:16,42.805,6.029,4330,1995,194.257,59.407,13.289
2019-07-01T11:56:16,42.805,6.029,4330,1995,194.243,59.403,13.288
2019-07-01T11:59:16,42.805,6.029,4330,1995,194.309,59.423,13.288
2019-07-01T12:02:16,42.805,6.029,4330,1995,194.327,59.428,13.288
2019-07-01T12:05:16,42.805,6.029,4330,1995,194.365,59.440,13.289
2019-07-01T12:08:16,42.805,6.029,4330,1995,194.303,59.421,13.288
2019-07-01T12:11:16,42.805,6.029,4330,1995,194.342,59.433,13.289
2019-07-01T12:14:16,42.805,6.029,4330,1995,194.312,59.424,13.289
2019-07-01T12:17:16,42.805,6.029,4330,1995,194.313,59.424,13.289
2019-07-01T12:20:16,42.805,6.029,4330,1995,194.288,59.417,13.289
2019-07-01T12:23:16,42.805,6.029,4330,1995,194.295,59.419,13.288
2019-07-01T12:26:16,42.805,6.029,4330,1995,194.313,59.424,13.288
2019-07-01T12:29:16,42.805,6.029,4330,1995,194.294,59.418,13.288
2019-07-01T12:32:16,42.805,6.029,4330,1995,194.196,59.388,13.288
2019-07-01T12:35:16,42.805,6.029,4330,1995,194.300,59.420,13.288
2019-07-01T12:38:16,42.805,6.029,4330,1995,194.319,59.425,13.288
2019-07-01T12:41:16,42.805,6.029,4330,1995,194.356,59.437,13.288
2019-07-01T12:44:16,42.805,6.029,4330,1995,194.352,59.435,13.288
2019-07-01T12:47:16,42.805,6.029,4330,1995,194.340,59.432,13.288
2019-07-01T12:50:16,42.805,6.029,4330,1995,194.369,59.440,13.287
2019-07-01T12:53:16,42.805,6.029,4330,1995,194.362,59.438,13.287
2019-07-01T12:56:16,42.805,6.029,4330,1995,194.307,59.421,13.287
2019-07-01T12:59:16,42.805,6.029,4330,1995,194.348,59.434,13.287
2019-07-01T13:02:16,42.805,6.029,4330,1995,194.324,59.426,13.288
2019-07-01T13:05:16,42.805,6.029,4330,1995,194.391,59.447,13.288
2019-07-01T13:08:16,42.805,6.029,4330,1995,194.403,59.450,13.287
2019-07-01T13:11:16,42.805,6.029,4330,1995,194.354,59.436,13.288
2019-07-01T13:14:16,42.805,6.029,4330,1995,194.455,59.466,13.288
2019-07-01T13:17:16,42.805,6.029,4330,1995,194.425,59.457,13.288
2019-07-01T13:20:16,42.805,6.029,4330,1995,194.419,59.455,13.288
2019-07-01T13:26:16,42.805,6.029,4330,1995,194.326,59.426,13.287
2019-07-01T13:29:16,42.805,6.029,4330,1995,194.368,59.440,13.288
2019-07-01T13:32:16,42.805,6.029,4330,1995,194.325,59.428,13.288
2019-07-01T13:35:16,42.805,6.029,4330,1995,194.343,59.433,13.288
2019-07-01T13:38:16,42.805,6.029,4330,1995,194.316,59.425,13.288
2019-07-01T13:41:16,42.805,6.029,4330,1995,194.308,59.422,13.288
2019-07-01T13:44:16,42.805,6.029,4330,1995,194.350,59.435,13.288
2019-07-01T13:47:16,42.805,6.029,4330,1995,194.355,59.436,13.288
2019-07-01T13:50:16,42.805,6.029,4330,1995,194.319,59.425,13.288
2019-07-01T13:53:16,42.805,6.029,4330,1995,194.311,59.423,13.288
2019-07-01T13:56:16,42.805,6.029,4330,1995,194.358,59.437,13.288
2019-07-01T13:59:16,42.805,6.029,4330,1995,194.299,59.419,13.288
2019-07-01T14:02:16,42.805,6.029,4330,1995,194.320,59.425,13.287
2019-07-01T14:05:16,42.805,6.029,4330,1995,194.272,59.410,13.287
2019-07-01T14:08:16,42.805,6.029,4330,1995,194.269,59.410,13.288
2019-07-01T14:11:16,42.805,6.029,4330,1995,194.296,59.418,13.288
2019-07-01T14:14:16,42.805,6.029,4330,1995,194.335,59.430,13.288
2019-07-01T14:17:16,42.805,6.029,4330,1995,194.352,59.435,13.287
2019-07-01T14:20:16,42.805,6.029,4330,1995,194.332,59.429,13.288
2019-07-01T14:23:16,42.805,6.029,4330,1995,194.331,59.429,13.288
2019-07-01T14:26:16,42.805,6.029,4330,1995,194.386,59.445,13.288
2019-07-01T14:29:16,42.805,6.029,4330,1995,194.353,59.435,13.288
2019-07-01T14:32:16,42.805,6.029,4330,1995,194.397,59.449,13.288
2019-07-01T14:35:16,42.805,6.029,4330,1995,194.422,59.457,13.288
2019-07-01T14:38:16,42.805,6.029,4330,1995,194.388,59.446,13.288
2019-07-01T14:41:16,42.805,6.029,4330,1995,194.376,59.443,13.288
2019-07-01T14:44:16,42.805,6.029,4330,1995,194.384,59.446,13.288
2019-07-01T14:47:16,42.805,6.029,4330,1995,194.400,59.450,13.288
2019-07-01T14:50:16,42.805,6.029,4330,1995,194.403,59.451,13.288
2019-07-01T14:53:16,42.805,6.029,4330,1995,194.399,59.450,13.288
2019-07-01T14:56:16,42.805,6.029,4330,1995,194.426,59.458,13.288
2019-07-01T14:59:16,42.805,6.029,4330,1995,194.401,59.451,13.288
2019-07-01T15:02:16,42.805,6.029,4330,1995,194.381,59.445,13.288
2019-07-01T15:05:16,42.805,6.029,4330,1995,194.332,59.430,13.288
2019-07-01T15:08:16,42.805,6.029,4330,1995,194.408,59.453,13.288
2019-07-01T15:11:16,42.805,6.029,4330,1995,194.387,59.447,13.288
2019-07-01T15:14:16,42.805,6.029,4330,1995,194.350,59.436,13.288
2019-07-01T15:17:16,42.805,6.029,4330,1995,194.319,59.426,13.289
2019-07-01T15:20:16,42.805,6.029,4330,1995,194.301,59.421,13.289
2019-07-01T15:23:16,42.805,6.029,4330,1995,194.335,59.431,13.289
2019-07-01T15:26:16,42.805,6.029,4330,1995,194.293,59.418,13.289
2019-07-01T15:29:16,42.805,6.029,4330,1995,194.313,59.424,13.288
2019-07-01T15:32:16,42.805,6.029,4330,1995,194.378,59.444,13.288
2019-07-01T15:35:16,42.805,6.029,4330,1995,194.364,59.440,13.288
2019-07-01T15:38:16,42.805,6.029,4330,1995,194.360,59.439,13.289
2019-07-01T15:41:16,42.805,6.029,4330,1995,194.343,59.433,13.288
2019-07-01T15:44:16,42.805,6.029,4330,1995,194.307,59.422,13.289
2019-07-01T15:47:16,42.805,6.029,4330,1995,194.340,59.432,13.288
2019-07-01T15:50:16,42.805,6.029,4330,1995,194.353,59.436,13.288
2019-07-01T15:53:16,42.805,6.029,4330,1995,194.393,59.448,13.288
2019-07-01T15:56:16,42.805,6.029,4330,1995,194.379,59.443,13.288
2019-07-01T16:02:16,42.805,6.029,4330,1995,194.396,59.447,13.287
2019-07-01T16:05:16,42.805,6.029,4330,1995,194.348,59.434,13.288
2019-07-01T16:08:16,42.805,6.029,4330,1995,194.352,59.436,13.288
2019-07-01T16:11:16,42.805,6.029,4330,1995,194.354,59.437,13.288
2019-07-01T16:14:16,42.805,6.029,4330,1995,194.382,59.445,13.288
2019-07-01T16:17:16,42.805,6.029,4330,1995,194.337,59.431,13.288
2019-07-01T16:20:16,42.805,6.029,4330,1995,194.346,59.434,13.288
2019-07-01T16:23:16,42.805,6.029,4330,1995,194.396,59.449,13.288
2019-07-01T16:26:16,42.805,6.029,4330,1995,194.281,59.414,13.288
2019-07-01T16:29:16,42.805,6.029,4330,1995,194.380,59.445,13.288
2019-07-01T16:32:16,42.805,6.029,4330,1995,194.355,59.437,13.289
2019-07-01T16:35:16,42.805,6.029,4330,1995,194.345,59.434,13.289
2019-07-01T16:38:16,42.805,6.029,4330,1995,194.333,59.431,13.289
2019-07-01T16:41:16,42.805,6.029,4330,1995,194.329,59.429,13.289
2019-07-01T16:44:16,42.805,6.029,4330,1995,194.357,59.438,13.288
2019-07-01T16:47:16,42.805,6.029,4330,1995,194.347,59.434,13.288
2019-07-01T16:50:16,42.805,6.029,4330,1995,194.411,59.454,13.288
2019-07-01T16:53:16,42.805,6.029,4330,1995,194.340,59.432,13.288
2019-07-01T16:56:16,42.805,6.029,4330,1995,194.299,59.420,13.288
2019-07-01T16:59:16,42.805,6.029,4330,1995,194.327,59.428,13.288
2019-07-01T17:02:16,42.805,6.029,4330,1995,194.357,59.437,13.288
2019-07-01T17:05:16,42.805,6.029,4330,1995,194.363,59.439,13.288
2019-07-01T17:08:16,42.805,6.029,4330,1995,194.453,59.466,13.288
2019-07-01T17:11:16,42.805,6.029,4330,1995,194.433,59.460,13.288
2019-07-01T17:14:16,42.805,6.029,4330,1995,194.425,59.457,13.288
2019-07-01T17:17:16,42.805,6.029,4330,1995,194.450,59.465,13.288
2019-07-01T17:20:16,42.805,6.029,4330,1995,194.417,59.455,13.287
2019-07-01T17:23:16,42.805,6.029,4330,1995,194.438,59.461,13.287
2019-07-01T17:26:16,42.805,6.029,4330,1995,194.323,59.426,13.287
2019-07-01T17:29:16,42.805,6.029,4330,1995,194.351,59.435,13.288
2019-07-01T17:32:16,42.805,6.029,4330,1995,194.385,59.445,13.287
2019-07-01T17:35:16,42.805,6.029,4330,1995,194.370,59.440,13.287
2019-07-01T17:38:16,42.805,6.029,4330,1995,194.356,59.436,13.288
2019-07-01T17:41:16,42.805,6.029,4330,1995,194.408,59.452,13.288
2019-07-01T17:44:16,42.805,6.029,4330,1995,194.449,59.465,13.288
2019-07-01T17:47:16,42.805,6.029,4330,1995,194.489,59.477,13.288
2019-07-01T17:50:16,42.805,6.029,4330,1995,194.479,59.474,13.288
2019-07-01T17:53:16,42.805,6.029,4330,1995,194.458,59.467,13.288
2019-07-01T17:56:16,42.805,6.029,4330,1995,194.447,59.465,13.288
2019-07-01T17:59:16,42.805,6.029,4330,1995,194.434,59.461,13.288
2019-07-01T18:02:16,42.805,6.029,4330,1995,194.418,59.455,13.288
2019-07-01T18:05:16,42.805,6.029,4330,1995,194.426,59.458,13.288
2019-07-01T18:08:16,42.805,6.029,4330,1995,194.415,59.455,13.288
2019-07-01T18:11:16,42.805,6.029,4330,1995,194.439,59.462,13.288
2019-07-01T18:14:16,42.805,6.029,4330,1995,194.459,59.469,13.288
2019-07-01T18:17:16,42.805,6.029,4330,1995,194.376,59.443,13.288
2019-07-01T18:20:16,42.805,6.029,4330,1995,194.412,59.454,13.288
2019-07-01T18:23:16,42.805,6.029,4330,1995,194.481,59.475,13.288
2019-07-01T18:26:16,42.805,6.029,4330,1995,194.489,59.478,13.288
2019-07-01T18:29:16,42.805,6.029,4330,1995,194.471,59.472,13.288
2019-07-01T18:35:16,42.805,6.029,4330,1995,194.422,59.456,13.287
2019-07-01T18:38:16,42.805,6.029,4330,1995,194.368,59.439,13.287
2019-07-01T18:41:16,42.805,6.029,4330,1995,194.394,59.448,13.287
2019-07-01T18:44:16,42.805,6.029,4330,1995,194.411,59.453,13.288
2019-07-01T18:47:16,42.805,6.029,4330,1995,194.427,59.458,13.287
2019-07-01T18:50:16,42.805,6.029,4330,1995,194.520,59.486,13.287
2019-07-01T18:53:16,42.805,6.029,4330,1995,194.519,59.486,13.287
2019-07-01T18:56:16,42.805,6.029,4330,1995,194.533,59.490,13.288
2019-07-01T18:59:16,42.805,6.029,4330,1995,194.497,59.479,13.288
2019-07-01T19:02:16,42.805,6.029,4330,1995,194.458,59.467,13.288
2019-07-01T19:05:16,42.805,6.029,4330,1995,194.489,59.477,13.288
2019-07-01T19:08:16,42.805,6.029,4330,1995,194.448,59.464,13.288
2019-07-01T19:11:16,42.805,6.029,4330,1995,194.431,59.459,13.288
2019-07-01T19:14:16,42.805,6.029,4330,1995,194.540,59.493,13.288
2019-07-01T19:17:16,42.805,6.029,4330,1995,194.536,59.492,13.288
2019-07-01T19:20:16,42.805,6.029,4330,1995,194.514,59.485,13.288
2019-07-01T19:23:16,42.805,6.029,4330,1995,194.476,59.473,13.288
2019-07-01T19:26:16,42.805,6.029,4330,1995,194.497,59.480,13.288
2019-07-01T19:29:16,42.805,6.029,4330,1995,194.482,59.475,13.288
2019-07-01T19:32:16,42.805,6.029,4330,1995,194.471,59.472,13.288
2019-07-01T19:35:16,42.805,6.029,4330,1995,194.539,59.493,13.288
2019-07-01T19:38:16,42.805,6.029,4330,1995,194.503,59.482,13.288
2019-07-01T19:41:16,42.805,6.029,4330,1995,194.546,59.495,13.288
2019-07-01T19:44:16,42.805,6.029,4330,1995,194.529,59.490,13.288
2019-07-01T19:47:16,42.805,6.029,4330,1995,194.532,59.491,13.288
2019-07-01T19:50:16,42.805,6.029,4330,1995,194.531,59.491,13.289
2019-07-01T19:53:16,42.805,6.029,4330,1995,194.503,59.482,13.289
2019-07-01T19:56:16,42.805,6.029,4330,1995,194.471,59.473,13.288
2019-07-01T19:59:16,42.805,6.029,4330,1995,194.481,59.475,13.288
2019-07-01T20:02:16,42.805,6.029,4330,1995,194.486,59.477,13.288
2019-07-01T20:05:16,42.805,6.029,4330,1995,194.501,59.481,13.288
2019-07-01T20:08:16,42.805,6.029,4330,1995,194.491,59.479,13.288
2019-07-01T20:11:16,42.805,6.029,4330,1995,194.435,59.461,13.288
2019-07-01T20:14:16,42.805,6.029,4330,1995,194.457,59.468,13.288
2019-07-01T20:17:16,42.805,6.029,4330,1995,194.481,59.475,13.288
2019-07-01T20:20:16,42.805,6.029,4330,1995,194.442,59.463,13.288
2019-07-01T20:23:16,42.805,6.029,4330,1995,194.398,59.450,13.288
2019-07-01T20:26:16,42.805,6.029,4330,1995,194.440,59.462,13.288
2019-07-01T20:29:16,42.805,6.029,4330,1995,194.446,59.464,13.288
2019-07-01T20:32:16,42.805,6.029,4330,1995,194.435,59.460,13.287
2019-07-01T20:35:16,42.805,6.029,4330,1995,194.455,59.466,13.287
2019-07-01T20:38:16,42.805,6.029,4330,1995,194.379,59.443,13.288
2019-07-01T20:41:16,42.805,6.029,4330,1995,194.417,59.455,13.287
2019-07-01T20:44:16,42.805,6.029,4330,1995,194.372,59.441,13.287
2019-07-01T20:47:16,42.805,6.029,4330,1995,194.424,59.457,13.287
2019-07-01T20:50:16,42.805,6.029,4330,1995,194.442,59.462,13.287
2019-07-01T20:53:16,42.805,6.029,4330,1995,194.433,59.459,13.287
2019-07-01T20:56:16,42.805,6.029,4330,1995,194.494,59.478,13.287
2019-07-01T20:59:16,42.805,6.029,4330,1995,194.386,59.445,13.287
2019-07-01T21:02:16,42.805,6.029,4330,1995,194.460,59.468,13.287
2019-07-01T21:05:16,42.805,6.029,4330,1995,194.503,59.481,13.288
2019-07-01T21:11:16,42.805,6.029,4330,1995,194.447,59.463,13.287
2019-07-01T21:14:16,42.805,6.029,4330,1995,194.431,59.460,13.288
2019-07-01T21:17:16,42.805,6.029,4330,1995,194.507,59.483,13.288
2019-07-01T21:20:16,42.805,6.029,4330,1995,194.497,59.480,13.288
2019-07-01T21:23:16,42.805,6.029,4330,1995,194.539,59.493,13.288
2019-07-01T21:26:16,42.805,6.029,4330,1995,194.556,59.498,13.288
2019-07-01T21:29:16,42.805,6.029,4330,1995,194.480,59.474,13.288
2019-07-01T21:32:16,42.805,6.029,4330,1995,194.487,59.476,13.288